Regional Weather Roundup
Issued by NWS San Angelo, TX

Home | Current Version | Previous Version | Text Only | Print | Product List | Glossary On
Versions: 1 2 3 4 5 6 7 8 9 10 11 12 13 14 15 16 17 18 19 20 21 22 23 24 25 26 27 28 29 30 31 32 33 34 35 36 37 38 39 40 41 42 43 44 45 46 47 48 49 50
000
ASUS44 KSJT 260558
RWRSJT
WEST CENTRAL TEXAS REGIONAL WEATHER ROUNDUP
NATIONAL WEATHER SERVICE SAN ANGELO TX
100 AM CDT SUN MAR 26 2017

NOTE: "FAIR" INDICATES FEW OR NO CLOUDS BELOW 12,000 FEET WITH NO
SIGNIFICANT WEATHER AND/OR OBSTRUCTIONS TO VISIBILITY.

TXZ049-054-064>066-071>073-076>078-098-099-113-114-127-128-139-140-
154-155-168>170-260700
...LOCATIONS ACROSS WEST CENTRAL TEXAS...

CITY           SKY/WX    TMP DP  RH WIND       PRES   REMARKS
SAN ANGELO     PTCLDY    51  33  50 CALM      29.87F
ABILENE        CLEAR     56  40  55 SE10      29.87F
DYESS AFB      NOT AVBL
JUNCTION       CLEAR     49  37  63 NW3       29.90F
SWEETWATER     NOT AVBL
BROWNWOOD      NOT AVBL
COLEMAN        NOT AVBL
SONORA         NOT AVBL
OZONA          NOT AVBL
BRADY          NOT AVBL
$$

TEXAS PANHANDLE/OKLAHOMA PANHANDLE

CITY           SKY/WX    TMP DP  RH WIND       PRES   REMARKS
AMARILLO       CLEAR     49  30  48 SE14      29.84F
BORGER         CLEAR     55  27  34 SE9       29.84F
CANADIAN       NOT AVBL
DALHART        CLEAR     50  35  56 SE12      29.83F
DUMAS          NOT AVBL
GUYMON         NOT AVBL
HEREFORD       NOT AVBL
PAMPA          NOT AVBL
PERRYTON       NOT AVBL
$$

SOUTHERN PANHANDLE/SOUTH PLAINS/ROLLING PLAINS

CITY           SKY/WX    TMP DP  RH WIND       PRES   REMARKS
LUBBOCK        PTCLDY    53  32  44 SE10      29.85F
SNYDER         NOT AVBL
CHILDRESS      CLEAR     53  35  50 SE10      29.85F
SEMINOLE       NOT AVBL
$$

PERMIAN BASIN

CITY           SKY/WX    TMP DP  RH WIND       PRES   REMARKS
MIDLAND        CLEAR     58  27  30 S8        29.84F
ODESSA         CLEAR     65  25  22 S15       29.84F
WINK           CLEAR     61  25  25 SE10      29.81F
$$

FAR WEST/SOUTHWEST MOUNTAINS/TRANS PECOS

CITY           SKY/WX    TMP DP  RH WIND       PRES   REMARKS
ALPINE         NOT AVBL
DRYDEN           N/A     61  32  33 NE6       29.84F
EL PASO        PTCLDY    70  13  11 W21G28    29.88R
FORT STOCKTON  CLEAR     64  32  30 S14       29.84F
GUADALUPE PASS   N/A     62  13  14 MISG        N/A
MARFA          NOT AVBL
PECOS          NOT AVBL
$$

DALLAS/FORT WORTH METROPLEX

CITY           SKY/WX    TMP DP  RH WIND       PRES   REMARKS
DFW AIRPORT    CLEAR     58  47  66 SE5       29.89F
FTW MEACHAM    CLEAR     59  46  62 NE7       29.89F
DAL-EXECUTIVE  CLEAR     55  48  77 E6        29.90F
GRAND PRAIRIE  NOT AVBL
ADDISON        NOT AVBL
MESQUITE       NOT AVBL
LANCASTER      NOT AVBL
$$

NORTH CENTRAL TEXAS

CITY           SKY/WX    TMP DP  RH WIND       PRES   REMARKS
SHRMAN/DENISON NOT AVBL
GAINESVILLE    NOT AVBL
BRIDGEPORT     NOT AVBL
DENTON         PTCLDY    51  47  86 SE3       29.90F
WAXAHACHIE     NOT AVBL
GRANBURY       NOT AVBL
$$

WESTERN NORTH TEXAS

CITY           SKY/WX    TMP DP  RH WIND       PRES   REMARKS
WICHITA FALLS  PTCLDY    52  42  69 SE3       29.87F
VERNON         NOT AVBL
BRECKENRIDGE   NOT AVBL
COMANCHE       NOT AVBL
$$

CENTRAL AND SOUTH CENTRAL TEXAS

CITY           SKY/WX    TMP DP  RH WIND       PRES   REMARKS
AUSTIN/BERGSTM CLEAR     56  51  84 CALM      29.91F
WACO           CLEAR     54  50  86 E5        29.91F
HILLSBORO      NOT AVBL
TEMPLE         CLEAR     59  50  72 SE6       29.92F
KILLEEN-GRAY   NOT AVBL
FORT HOOD      NOT AVBL
GEORGETOWN     NOT AVBL
LAGO VISTA     NOT AVBL
SAN MARCOS     NOT AVBL
NEW BRAUNFELS  CLEAR     59  52  77 CALM      29.90S
RANDOLPH AFB   NOT AVBL
SAN ANTONIO    PTCLDY    66  58  75 S10       29.91S
STINSON        CLEAR     63  57  81 SE3       29.88F
PLEASANTON     NOT AVBL
LA GRANGE      NOT AVBL
GIDDINGS       NOT AVBL
$$

EAST TEXAS

CITY           SKY/WX    TMP DP  RH WIND       PRES   REMARKS
PARIS          NOT AVBL
CLARKSVILLE    NOT AVBL
TYLER          CLEAR     54  52  93 S3        29.93F
LONGVIEW       CLEAR     54  53  97 CALM      29.94S
PALESTINE      NOT AVBL
NACOGDOCHES    NOT AVBL
$$

TEXAS HILL COUNTRY AND EDWARDS PLATEAU

CITY           SKY/WX    TMP DP  RH WIND       PRES   REMARKS
LLANO          NOT AVBL
HORSESHOE BAY  NOT AVBL
KERRVILLE      NOT AVBL
FREDERICKSBRG  NOT AVBL
ROCKSPRINGS    NOT AVBL
HONDO          CLEAR     58  50  75 NE5       29.90S
UVALDE         NOT AVBL
DEL RIO        CLEAR     66  39  37 E10       29.84F
$$

SOUTHEAST TEXAS

CITY           SKY/WX    TMP DP  RH WIND       PRES   REMARKS
COLLEGE STN    CLEAR     61  51  70 E3        29.92F
CALDWELL       NOT AVBL
CROCKETT       NOT AVBL
BRENHAM        NOT AVBL
HUNTSVILLE     CLEAR     56  51  84 CALM      29.94R
CONROE         CLEAR     51  50  96 CALM      29.94F
HOUSTON BUSH   CLEAR     60  54  80 S3        29.93F
HOUSTON HOBBY  MOCLDY    69  68  96 S6        29.94S
PERLAND        CLOUDY    72  68  87 CALM      29.95F
WHARTON        NOT AVBL
$$

THE UPPER TEXAS COAST

CITY           SKY/WX    TMP DP  RH WIND       PRES   REMARKS
ORANGE         NOT AVBL
PORT ARTHUR    CLOUDY    70  67  90 SW6       29.94F
GALVESTON      CLEAR     72  70  93 S6        29.95F
ANGLETON       FOG       67  67 100 S5        29.94S VSB 1
BAY CITY       NOT AVBL
$$

TEXAS COASTAL BEND, RIO GRANDE PLAINS DEEP SOUTH TEXAS

CITY           SKY/WX    TMP DP  RH WIND       PRES   REMARKS
VICTORIA       PTCLDY    69  67  93 S8        29.92F FOG
BEEVILLE       NOT AVBL
ROCKPORT       MOCLDY    72  69  90 S8        29.91F
PORT ARANSAS   NOT AVBL
PORT LAVACA    NOT AVBL
CORPUS CHRISTI PTCLDY    70  69  97 SE13      29.91F
KINGSVILLE NAS NOT AVBL
COTULLA        CLEAR     71  65  81 SE13      29.87F
LAREDO         NOT AVBL
BROWNSVILLE    CLEAR     71  69  93 SE9       29.92F
PORT ISABEL    CLEAR     72  70  93 S10       29.91F
HEBBRONVILLE   NOT AVBL
MCALLEN        CLEAR     72  68  87 SE9       29.91F
WESLACO        NOT AVBL
FALFURRIAS     NOT AVBL
EDINBURG       NOT AVBL
$$




USA.gov is the U.S. government's official web portal to all federal, state and local government web resources and services.